www.pogodaiklimat.ru
ПОГОДА в Клинтонвилле
Время
и дата
06:35 30.11
06:55 30.11
07:15 30.11
07:35 30.11
07:55 30.11
08:15 30.11
08:35 30.11
08:55 30.11
09:15 30.11
09:35 30.11
09:55 30.11
10:15 30.11
10:35 30.11
10:55 30.11
11:15 30.11
11:35 30.11
11:55 30.11
12:15 30.11
12:35 30.11
12:55 30.11
13:15 30.11
13:35 30.11
13:55 30.11
14:15 30.11
14:35 30.11
14:55 30.11
15:15 30.11
15:35 30.11
15:55 30.11
16:15 30.11
16:35 30.11
16:55 30.11
17:15 30.12
17:35 30.12
17:55 30.12
18:15 30.11
18:35 30.11
18:55 30.11
19:15 30.11
19:35 30.11
19:55 30.11
20:15 30.11
20:35 30.11
20:55 30.11
21:15 30.11
21:35 30.11
21:55 30.11
22:15 30.11
Ветер
(напр.,м/с)
Видим. Явления Облачность Т
(С)
Тd
(С)
f
(%)
Тe
(С)
Тes
(С)
Комфортность P
(гПа)
Po
(гПа)
Тmin
(С)
Tmax
(С)
R
(мм)
R24
(мм)
S
(см)
С 3
{4}
16 км 10/10 900 м -2.8 -10.1 57 -10 -10 989.7
С 3
{4}
16 км 10/10 960 м -3.0 -10.1 58 -10 -10 989.7
С 2
{4}
16 км 10/10 900 м -3.1 -9.7 60 -9 -9 989.7
СВ 3
{4}
16 км 10/10 840 м -3.4 -9.5 63 -10 -10 990.0
С 2
{4}
16 км 10/10 840 м -3.5 -9.7 62 -10 -10 990.0
С 2
{3}
16 км 10/10 840 м -3.5 -9.7 62 -9 -9 990.0
С 3
{4}
16 км 10/10 840 м -3.5 -9.7 62 -11 -11 990.3
С 3
{4}
16 км 10/10 840 м -3.4 -9.7 62 -10 -10 990.3
С 3
{5}
16 км 10/10 840 м -3.4 -9.7 62 -11 -11 990.0
С 3
{4}
16 км 10/10 840 м -3.2 -9.5 62 -10 -10 990.0
С 2
{4}
16 км 10/10 780 м -3.2 -9.5 62 -10 -10 990.3
С 2 16 км 10/10 780 м -3.1 -9.5 61 -9 -9 990.0
С 2
{4}
16 км 10/10 780 м -3.0 -9.3 62 -9 -9 989.7
С 2 16 км 10/10 780 м -2.8 -9.2 61 -9 -9 990.0
С 3
{4}
16 км 10/10 780 м -2.7 -9.3 60 -10 -10 989.7
С 3
{4}
16 км 10/10 840 м -2.5 -9.4 59 -9 -9 989.3
С 2 16 км 10/10 840 м -2.3 -9.0 60 -8 -8 989.3 -3.5 -2.3
С 3
{4}
16 км 10/10 900 м -2.1 -9.7 56 -9 -9 989.0
С 2
{4}
16 км 10/10 900 м -2.1 -9.9 55 -8 -8 988.7
С 2
{4}
16 км 10/10 960 м -2.0 -9.8 55 -8 -8 988.4
С 2
{4}
16 км 10/10 900 м -2.0 -9.4 57 -8 -8 988.4
С 2
{4}
16 км 10/10 960 м -1.5 -9.9 53 -7 -7 988.4
С 3
{4}
16 км 10/10 960 м -1.6 -10.0 53 -8 -8 988.4
С 3
{4}
16 км 10/10 960 м -1.7 -9.8 54 -8 -8 988.0
С 2 16 км 8/8 960 м -1.6 -10.0 53 -7 -7 988.0
С 2
{4}
16 км 10/10 960 м -1.5 -10.0 52 -7 -7 988.0
С 2 16 км 8/8 960 м -1.9 -10.1 53 -8 -8 988.0
С 2
{3}
16 км 8/8 1020 м -2.0 -10.3 53 -7 -7 988.4
С 3
{4}
16 км 8/8 1020 м -2.5 -10.2 55 -9 -9 988.4
С 2
{4}
16 км 5/5 1020 м -2.7 -10.3 56 -8 -8 988.7
С 1 16 км ясно -3.0 -10.3 57 -8 -8 988.7
С 1 16 км 8/8 1020 м -3.2 -10.1 59 -8 -8 988.7
С 1 16 км 10/10 1020 м -3.4 -10.0 60 -7 -7 988.7
С 1 16 км 8/8 1020 м -3.6 -10.1 61 -8 -8 988.7
С 1 16 км 5/5 960 м -3.7 -10.2 61 -9 -9 988.7 -3.8 -1.3
С 1 16 км 8/8 960 м -4.0 -10.2 62 -9 -9 988.7
С 1 16 км 5/5 960 м -4.3 -10.1 64 -8 -8 988.7
С 1 16 км 5/5 960 м -4.5 -10.1 65 -8 -8 988.7
С 1 16 км ясно -4.6 -10.1 65 -8 -8 988.7
С 1 16 км ясно -4.6 -10.0 66 -8 -8 988.4
С 1 16 км 5/5 900 м -4.8 -10.0 67 -9 -9 988.4
С 1 16 км 8/8 840 м -4.6 -9.8 67 -9 -9 988.4
С 1 16 км 10/10 840 м -4.8 -9.8 68 -10 -10 988.4
С 1 16 км 10/10 840 м -4.6 -9.7 67 -9 -9 988.7
С 1 16 км 10/10 840 м -4.5 -9.6 68 -8 -8 988.4
С 1 16 км 10/10 840 м -4.6 -9.6 68 -9 -9 988.4
С 1 16 км 10/10 780 м -4.8 -9.6 69 -9 -9 988.4
С 1 16 км 10/10 780 м -5.0 -9.7 70 -9 -9 988.0
Местоположение метеостанции Clintonville Municipal Airport: широта 44.6153 долгота -88.7313 высота над уровнем моря 247 м.
В архиве по умолчанию представлена погода в Клинтонвилле за последние 1-2 суток. Обновление информации о фактической погоде в базе происходит ежечасно! Архивные данные за месяц целиком и за предыдущие месяцы Вы можете получить, выбрав интересующий диапазон дат из раскрывающегося списка и нажав кнопку "Ввод!".
Внимание! Архив погоды МЕТАР в базе сайта по станциям, не включенным в климатический монитор, хранится не более 60 дней. Нет смысла пытаться выбрать более раннюю дату.
*Определитесь, кто Вы:
Внимание! Время в таблицах - местное (без учета летнего времени). Для получения всемирного времени необходимо вычесть поправку, которая равна -6 ч.
Смотрите также архив погоды в соседних городах и на ближайших метеорологических станциях:
Партнеры нашего сайта:      
Пояснения к столбцам:
  • Ветер - указаны скорость ветра в м/с - средняя за 10 мин, порывы в срок и между сроками (в фигурных скобках) и направление, откуда дует ветер: С - северный,
  • СВ - северо-восточный, В - восточный, ЮВ - юго-восточный, Ю - южный, ЮЗ - юго-западный, З - западный, СЗ - северо-западный.
  • Видимость - горизонтальная дальность видимости в метрах или километрах. При видимости от 1 до 10 км при отсутствии осадков обычно наблюдается дымка, при ухудшении видимости до 1 км и менее - туман. В сухую погоду видимость может ухудшаться дымом, пылью или мглою.
  • Явления - указаны атмосферные явления, наблюдавшиеся в срок или в последний час перед сроком; фигурными скобками обозначены явления, наблюдавшиеся между сроками (за 1-3 часа до срока); квадратными скобками обозначены град или гололедные отложения с указанием их диаметра в мм.
  • Облачность - указаны через наклонную черту общая и нижняя облачность в баллах и высота нижней границы облаков в метрах; квадратными скобками обозначены формы облаков: Ci - перистые, Cs - перисто-слоистые, Cc - перисто-кучевые, Ac - высококучевые, As - высокослоистые, Sc - слоисто-кучевые, Ns - слоисто-дождевые, Cu - кучевые, Cb - кучево-дождевые. Подробнее классификацию облаков см. в Атласе облаков (PDF).
  • T - Температура воздуха - температура, измеренная на высоте 2 м над землей.
  • Td - Температура точки росы - температура, при понижении до которой содержащийся в воздухе водяной пар достигнет насыщения.
  • f - Относительная влажность воздуха - влажноcть воздуха, измеренная на высоте 2 м над землей.
  • Te - Эффективная температура - температура, которую ощущает одетый по сезону человек в тени. Характеристика душности погоды. При расчете учитывается влияние влажности воздуха и скорости ветра на теплоощущения человека.
  • Tes - Эффективная температура на солнце - температура, которую ощущает человек, с поправкой на солнечный нагрев. Характеристика знойности погоды. Зависит от высоты солнца над горизонтом, облачности и скорости ветра. Ночью, в пасмурную погоду, а также при ветре 12 м/с и более поправка равна нулю.
  • P - Атмосферное давление - приведенное к уровню моря атмосферное давление.
  • Po - Атмосферное давление - измеренное на уровне метеостанции атмосферное давление.
  • Tmin - Минимальная температура - минимум температуры воздуха на высоте 2 м над землей.
  • Tmax - Максимальная температура - максимум температуры воздуха на высоте 2 м над землей.
  • R - Количество осадков - Количество выпавших осадков за период времени, мм. При наведении курсора мыши на число - период времени, за который выпало указанное количество осадков.
  • R24 - Количество осадков - Количество выпавших осадков за 24 часа, мм.
  • S - Снежный покров - Высота снежного покрова, см. При наведении курсора мыши на число - состояние снежного покрова и степень покрытия местности в баллах.